Fort Campbell, TN

9:57 AM CST on February 14, 2016 (GMT -0600)
Outlaw

Weather History for KCKV - April, 2014

Change the Weather History Date:

Wednesday, April 23, 2014

  Actual Average Record
Temperature  
Mean Temperature 57 °F -  
Max Temperature 69 °F - 90 °F (1960)
Min Temperature 44 °F - 29 °F (1986)
Degree Days  
Heating Degree Days 8    
Month to date heating degree days 177  
Since 1 July heating degree days 4309  
Cooling Degree Days 0    
Month to date cooling degree days 15  
Growing Degree Days 8 (Base 50)    
Moisture  
Dew Point 37 °F    
Average Humidity 53    
Maximum Humidity 76    
Minimum Humidity 29    
Precipitation  
Precipitation 0.00 in - 1.65 in (1983)
Month to date precipitation 2.88  
Sea Level Pressure  
Sea Level Pressure 30.03 in    
Wind  
Wind Speed 6 mph (NE)    
Max Wind Speed 15 mph    
Max Gust Speed 20 mph    
Visibility 10 miles    
Events      
T = Trace of Precipitation, MM = Missing Value Source: NWS Daily Summary

Daily Weather History Graph

Daily Weather History Graph

Search for Another Location

Airport or City:

Trip Planner

Search our weather history database for the weather conditions in past years. The results will help you decide how hot, cold, wet, or windy it might be!

Date:

Astronomy

Apr. 23, 2014 Rise Set
Actual Time 6:05 AM CDT 7:30 PM CDT
Civil Twilight 5:38 AM CDT 7:58 PM CDT
Nautical Twilight 5:05 AM CDT 8:30 PM CDT
Astronomical Twilight 4:31 AM CDT 9:05 PM CDT
Moon 2:27 AM CDT (4/23) 1:48 PM CDT (4/23)
Length of Visible Light 14h 19m
Length of Day
13h 25m
Waning Crescent, 34% of the Moon is Illuminated
Apr 23
Waning Crescent
Apr 29
New
May 6
First Quarter
May 14
Full
May 21
Last Quarter

Hourly Weather History & Observations

Time (CDT) Temp. Windchill Dew Point Humidity Pressure Visibility Wind Dir Wind Speed Gust Speed Precip Events Conditions
12:52 AM 51.1 °F - 37.9 °F 61% 29.96 in 10.0 mi WNW 3.5 mph - N/A   Clear
1:52 AM 46.9 °F - 39.0 °F 74% 29.96 in 10.0 mi NNW 3.5 mph - N/A   Clear
2:52 AM 46.9 °F - 39.9 °F 77% 29.96 in 10.0 mi NNW 3.5 mph - N/A   Clear
3:52 AM 46.0 °F 44.8 °F 39.0 °F 76% 29.99 in 10.0 mi NNW 3.5 mph - N/A   Clear
5:52 AM 46.0 °F 44.8 °F 37.0 °F 71% 30.04 in 10.0 mi NNE 3.5 mph - N/A   Clear
6:52 AM 46.9 °F - 37.0 °F 68% 30.06 in 10.0 mi ENE 6.9 mph - N/A   Clear
7:52 AM 51.1 °F - 37.0 °F 59% 30.09 in 10.0 mi ENE 11.5 mph - N/A   Clear
8:52 AM 53.1 °F - 36.0 °F 52% 30.10 in 10.0 mi East 11.5 mph - N/A   Clear
9:52 AM 55.9 °F - 37.9 °F 51% 30.11 in 10.0 mi NE 9.2 mph - N/A   Clear
10:52 AM 59.0 °F - 39.0 °F 48% 30.10 in 10.0 mi ENE 6.9 mph - N/A   Clear
11:52 AM 61.0 °F - 39.0 °F 44% 30.09 in 10.0 mi Variable 5.8 mph - N/A   Clear
12:52 PM 63.0 °F - 39.0 °F 41% 30.06 in 10.0 mi NNE 9.2 mph - N/A   Clear
1:52 PM 64.9 °F - 39.0 °F 39% 30.05 in 10.0 mi NE 6.9 mph - N/A   Clear
2:52 PM 66.9 °F - 39.0 °F 36% 30.03 in 10.0 mi North 6.9 mph - N/A   Clear
3:52 PM 66.0 °F - 34.0 °F 30% 30.01 in 10.0 mi Calm Calm - N/A   Clear
4:52 PM 69.1 °F - 37.0 °F 31% 29.99 in 10.0 mi NE 5.8 mph - N/A   Clear
5:52 PM 66.9 °F - 37.9 °F 34% 29.99 in 10.0 mi NE 5.8 mph - N/A   Clear
6:52 PM 64.9 °F - 35.1 °F 33% 29.99 in 10.0 mi ENE 4.6 mph - N/A   Clear
7:52 PM 61.0 °F - 34.0 °F 36% 30.00 in 10.0 mi Calm Calm - N/A   Clear
8:52 PM 59.0 °F - 35.1 °F 41% 30.01 in 10.0 mi NNE 4.6 mph - N/A   Clear
9:52 PM 55.9 °F - 35.1 °F 45% 30.01 in 10.0 mi NNE 3.5 mph - N/A   Clear
10:52 PM 54.0 °F - 35.1 °F 49% 30.00 in 10.0 mi ENE 3.5 mph - N/A   Clear
11:52 PM 52.0 °F - 35.1 °F 53% 29.99 in 10.0 mi East 6.9 mph - N/A   Clear